[[{"header":{"parameterUnit":"m.s-1","parameterCategory":1,"la1":30.2991,"la2":30.254,"lo1":-89.0895,"lo2":-89.0444,"dy":0.0017,"dx":0.0017,"nx":28,"ny":28,"refTime":"2024-10-02T03:00:00:Z","depth":0,"parameterNumber":2,"parameterNumberName":"U-component_of_WINDS"},"data":[0,0,0,0,0,0,0,0,0,0,0,0,0,0,0,0,0,0,0,0,0,0,0,0,0,0,0,0,0,0,0,0,0,0,0,0,0,0,0,0,0,0,0,0,0,0,0,0,0,0,0,0,0,0,0,0,0,0,-4.2721,-4.2722,0,-4.2769,-4.2769,-4.277,-4.2618,-4.2613,-4.2608,-4.2604,-4.2657,-4.2663,-4.2668,0,0,0,0,0,0,0,0,0,0,0,0,0,-4.2505,-4.251,-4.2721,-4.2722,-4.2723,-4.2769,-4.2769,-4.277,-4.2618,-4.2613,-4.2607,-4.2602,-4.2655,-4.2662,-4.2669,0,0,0,0,0,0,0,0,0,0,0,0,0,-4.258,-4.2511,-4.2721,-4.2652,-4.2647,-4.2769,-4.2769,-4.277,-4.262,-4.2613,-4.2606,-4.2599,-4.2653,-4.2661,-4.267,-4.2862,0,0,-4.2696,-4.27,0,0,0,0,0,0,0,0,-4.2576,-4.2589,-4.2662,-4.2657,-4.2651,-4.268,-4.2712,-4.2801,-4.2621,-4.263,-4.2604,-4.2596,-4.2671,-4.2677,-4.2701,-4.2864,-4.2866,-4.2697,-4.2702,-4.2706,-4.2708,0,0,0,0,0,0,0,-4.2571,-4.2586,-4.274,-4.2663,-4.2657,-4.2621,-4.2624,-4.2728,-4.2689,-4.2629,-4.2618,-4.2625,-4.2666,-4.2694,-4.2702,-4.2867,-4.2696,-4.2704,-4.2709,-4.2713,-4.3191,-4.3198,0,0,0,0,0,0,-4.2574,-4.2582,-4.2739,-4.2742,-4.2596,-4.263,-4.2634,-4.2678,-4.2687,-4.2682,-4.2631,-4.2618,-4.2682,-4.2692,-4.2703,-4.2928,-4.2705,-4.2714,-4.2718,-4.3184,-4.3193,-4.3201,0,0,0,0,0,0,-4.257,-4.259,-4.2737,-4.2659,-4.2675,-4.2641,-4.2692,-4.2683,-4.2709,-4.2689,-4.2682,-4.2666,-4.2677,-4.2691,-4.2823,-4.2928,-4.2717,-4.2725,-4.3175,-4.3186,-4.3197,-4.3381,0,0,0,0,0,0,-4.2565,-4.2589,-4.266,-4.2662,-4.268,-4.2855,-4.2699,-4.2688,-4.2724,-4.2707,-4.272,-4.2715,-4.2673,-4.2811,-4.2832,-4.2936,-4.2732,-4.3165,-4.318,-4.3193,-4.3365,-4.3397,-4.3424,0,0,0,0,0,-4.2558,-4.2711,-4.2665,-4.2684,-4.2768,-4.2861,-4.2872,-4.2819,-4.2733,-4.2805,-4.2792,-4.2715,-4.2914,-4.2826,-4.2848,-4.2956,-4.3158,-4.3176,-4.3192,-4.3352,-4.3391,-4.3424,0,0,0,0,0,0,-4.2723,-4.271,-4.2658,-4.2816,-4.2841,-4.2835,-4.2924,-4.2861,-4.2912,-4.2894,-4.2828,-4.2832,-4.2977,-4.298,-4.2883,-4.3143,-4.3021,-4.3044,-4.3136,-4.3172,-4.3201,-4.3197,-4.2739,0,0,0,0,0,-4.2778,-4.2854,-4.2839,-4.298,-4.2995,-4.2958,-4.2997,-4.2954,-4.2978,-4.2988,-4.2984,-4.3012,-4.308,-4.3126,-4.3188,-4.3366,-4.3367,-4.3451,-4.3481,-4.3505,-4.3525,-4.362,-4.3657,-4.3257,-4.3257,-4.3256,0,0,-4.2893,-4.2895,-4.2946,-4.3013,-4.3027,-4.3109,-4.2968,-4.306,-4.312,-4.3002,-4.3126,-4.3126,-4.3152,-4.3308,-4.3376,-4.3314,-4.3636,-4.3527,-4.3547,-4.3553,-4.3641,-4.3679,-4.3713,-4.3268,-4.3266,-4.3264,0,0,-4.3142,-4.3151,-4.3269,-4.3287,-4.331,-4.3285,-4.3314,-4.3318,-4.3313,-4.3436,-4.335,-4.3422,-4.3541,-4.3564,-4.3591,-4.3852,-4.3783,-4.3875,-4.4028,-4.4122,-4.4153,-4.4181,-4.4274,-4.4308,-4.3895,-4.3895,-4.3895,0,-4.3281,-4.3398,-4.3339,-4.3437,-4.3469,-4.3366,-4.3487,-4.3507,-4.355,-4.3576,-4.3506,-4.3655,-4.3665,-4.3825,-4.3889,-4.3915,-4.3947,-4.3872,-4.4153,-4.418,-4.4205,-4.4294,-4.4329,-4.3906,-4.3905,-4.3904,-4.3903,0,-4.3569,-4.3652,-4.3746,-4.3788,-4.3832,-4.3941,-4.39,-4.3951,-4.3906,-4.3889,-4.4018,-4.4027,-4.4089,-4.4125,-4.4082,-4.428,-4.4241,-4.4164,-4.404,-4.4256,-4.4337,-4.4371,-4.3922,-4.3918,-4.3914,-4.3912,0,0,-4.3921,-4.3931,-4.3966,-4.3985,-4.4004,-4.4068,-4.4175,-4.4234,-4.428,-4.4315,-4.4402,-4.4507,-4.4436,-4.4467,-4.4426,-4.4508,-4.4715,-4.4421,-4.4421,-4.4475,-4.4935,-4.4992,-4.5032,-4.467,-4.4677,-4.4682,-4.4933,0,-4.4166,-4.4344,-4.4295,-4.4475,-4.4551,-4.4456,-4.4549,-4.4572,-4.456,-4.4625,-4.4612,-4.4688,-4.4588,-4.4607,-4.4684,-4.4674,-4.4807,-4.4655,-4.4752,-4.4756,-4.4747,-4.5074,-4.5135,-4.5371,-4.4964,-4.497,-4.4973,0,-4.4474,-4.4519,-4.4706,-4.4714,-4.4745,-4.4828,-4.488,-4.4943,-4.4969,-4.4954,-4.4991,-4.4934,-4.504,-4.4917,-4.5063,-4.4962,-4.4999,-4.5001,-4.5009,-4.5014,-4.4877,-4.5089,-4.5445,-4.548,-4.5023,-4.5019,-4.5016,0,-4.4711,-4.482,-4.4946,-4.4965,-4.4977,-4.5039,-4.5047,-4.5065,-4.5105,-4.5152,-4.5177,-4.5237,-4.5269,-4.5317,-4.5279,-4.5193,-4.5432,-4.5305,-4.5424,-4.5425,-4.5477,-4.5474,-4.5843,-4.5504,-4.5503,-4.5503,-4.5502,0,-4.4989,-4.5107,-4.5052,-4.513,-4.526,-4.5204,-4.5336,-4.5333,-4.5351,-4.5428,-4.5351,-4.5425,-4.537,-4.544,-4.5412,-4.5538,-4.5553,-4.5545,-4.5536,-4.5552,-4.5553,-4.5574,-4.5556,-4.5512,-4.551,-4.5508,-4.5506,0,-4.5275,-4.5243,-4.5374,-4.5376,-4.5379,-4.5475,-4.5477,-4.555,-4.5534,-4.5632,-4.5652,-4.5627,-4.5706,-4.5673,-4.5756,-4.5737,-4.5899,-4.5868,-4.5889,-4.5881,-4.6001,-4.599,-4.6396,-4.6447,-4.6076,-4.608,-4.6083,0,-4.5453,-4.5541,-4.5553,-4.5598,-4.5612,-4.5686,-4.5726,-4.5676,-4.5722,-4.5759,-4.5828,-4.59,-4.5954,-4.6085,-4.6075,-4.614,-4.611,-4.6248,-4.6119,-4.6132,-4.6111,-4.6106,-4.6115,-4.6273,-4.6277,-4.6281,-4.6284,0,-4.5772,-4.5753,-4.5813,-4.5869,-4.592,-4.5962,-4.5997,-4.6039,-4.5991,-4.6047,-4.6126,-4.6168,-4.6254,-4.6327,-4.6384,-4.6395,-4.6333,-4.6325,-4.6356,-4.6371,-4.638,-4.6376,-4.5959,-4.6315,-4.6312,-4.631,-4.6308,-4.6307,-4.6009,-4.6083,-4.6103,-4.6174,-4.6196,-4.6231,-4.63,-4.6292,-4.6357,-4.6422,-4.6389,-4.6482,-4.6507,-4.6578,-4.6597,-4.667,-4.6616,-4.6661,-4.6672,-4.6683,-4.6699,-4.637,-4.6681,-4.668,-4.6679,-4.6678,-4.6678,0,-4.6323,-4.6332,-4.6398,-4.645,-4.6506,-4.6442,-4.6479,-4.6531,-4.6613,-4.6641,-4.6697,-4.6789,-4.686,-4.6857,-4.6923,-4.6983,-4.6956,-4.7002,-4.6996,-4.7,-4.6744,-4.671,-4.7022,-4.7022,-4.7022,-4.7022,-4.7022,-4.7022,-4.6493,-4.6616,-4.66,-4.6734,-4.6742,-4.6831,-4.6858,-4.6891,-4.6914,-4.702,-4.7078,-4.7075,-4.7092,-4.7159,-4.7223,-4.722,-4.7248,-4.7305,-4.7292,-4.7052,-4.7018,-4.6985,-4.6953,-4.7311,-4.7312,-4.7541,-4.7543,-4.7545]},{"header":{"parameterUnit":"m.s-1","parameterCategory":1,"la1":30.2991,"la2":30.254,"lo1":-89.0895,"lo2":-89.0444,"dy":0.0017,"dx":0.0017,"nx":28,"ny":28,"refTime":"2024-10-02T03:00:00:Z","depth":0,"parameterNumber":3,"parameterNumberName":"V-component_of_WINDS"},"data":[0,0,0,0,0,0,0,0,0,0,0,0,0,0,0,0,0,0,0,0,0,0,0,0,0,0,0,0,0,0,0,0,0,0,0,0,0,0,0,0,0,0,0,0,0,0,0,0,0,0,0,0,0,0,0,0,0,0,0.0766,0.0766,0,0.081,0.081,0.0811,0.0798,0.0797,0.0796,0.0795,0.0843,0.0845,0.0847,0,0,0,0,0,0,0,0,0,0,0,0,0,0.0675,0.0676,0.0766,0.0766,0.0767,0.081,0.081,0.0811,0.0798,0.0797,0.0796,0.0795,0.0842,0.0845,0.0847,0,0,0,0,0,0,0,0,0,0,0,0,0,0.0716,0.0677,0.0766,0.0765,0.0766,0.081,0.081,0.0811,0.0798,0.0797,0.0795,0.0794,0.0841,0.0844,0.0848,0.0895,0,0,0.0857,0.0859,0,0,0,0,0,0,0,0,0.0714,0.0719,0.0765,0.0766,0.0766,0.0797,0.0796,0.0839,0.0798,0.0786,0.0795,0.0793,0.0829,0.0833,0.0844,0.0897,0.0899,0.0858,0.086,0.0861,0.0862,0,0,0,0,0,0,0,0.0711,0.0717,0.0783,0.0766,0.0766,0.0765,0.0769,0.0804,0.0815,0.0787,0.0786,0.0791,0.0829,0.0841,0.0845,0.09,0.0858,0.086,0.0862,0.0864,0.0997,0.0999,0,0,0,0,0,0,0.0707,0.0715,0.0782,0.0785,0.0736,0.0767,0.0772,0.0788,0.0814,0.0817,0.0792,0.0791,0.0836,0.0842,0.0847,0.0906,0.0861,0.0864,0.0866,0.0996,0.0998,0.0999,0,0,0,0,0,0,0.0705,0.0713,0.078,0.075,0.0758,0.077,0.0789,0.079,0.0802,0.0818,0.0821,0.0803,0.0836,0.0842,0.0884,0.0908,0.0865,0.0868,0.0994,0.0996,0.0999,0.1024,0,0,0,0,0,0,0.0703,0.0712,0.0729,0.075,0.076,0.0815,0.079,0.0792,0.0808,0.0805,0.0829,0.0831,0.0835,0.0879,0.0887,0.0911,0.0871,0.0992,0.0995,0.0998,0.1021,0.1027,0.1032,0,0,0,0,0,0.0699,0.0735,0.073,0.0738,0.0781,0.0816,0.0822,0.0824,0.0809,0.0828,0.0838,0.0831,0.0904,0.0883,0.0892,0.0918,0.099,0.0994,0.0998,0.1018,0.1025,0.1031,0,0,0,0,0,0,0.0717,0.0737,0.0733,0.0775,0.0794,0.0814,0.0836,0.0832,0.0855,0.0852,0.0856,0.0861,0.0904,0.0915,0.0892,0.0967,0.0945,0.0951,0.0958,0.0965,0.097,0.0967,0.0873,0,0,0,0,0,0.0726,0.0751,0.0768,0.0804,0.0814,0.0824,0.0839,0.084,0.0859,0.0867,0.0881,0.0902,0.0929,0.0947,0.0974,0.1022,0.1028,0.1045,0.105,0.1054,0.1059,0.1088,0.1096,0.1011,0.1011,0.1011,0,0,0.0744,0.0758,0.0774,0.0808,0.0823,0.0851,0.083,0.086,0.0882,0.0872,0.0912,0.0923,0.0946,0.0992,0.1013,0.1003,0.1084,0.1059,0.1062,0.1065,0.1093,0.1101,0.1108,0.1014,0.1013,0.1013,0,0,0.0792,0.0805,0.0838,0.0853,0.0875,0.0882,0.089,0.0911,0.0917,0.0957,0.0952,0.0978,0.1025,0.1043,0.1058,0.1115,0.111,0.1124,0.1153,0.1181,0.1188,0.1194,0.1216,0.1224,0.1129,0.1129,0.1129,0,0.0813,0.0853,0.0855,0.0886,0.0902,0.0895,0.093,0.0944,0.0975,0.0987,0.0974,0.1035,0.105,0.1101,0.1115,0.1127,0.1138,0.1121,0.1186,0.1192,0.1198,0.1219,0.1228,0.113,0.113,0.113,0.113,0,0.0878,0.0907,0.0931,0.096,0.0979,0.1012,0.102,0.1039,0.1039,0.1048,0.109,0.1108,0.1139,0.1151,0.1151,0.1203,0.1196,0.1185,0.1163,0.1208,0.1228,0.1236,0.1133,0.1132,0.1132,0.1131,0,0,0.0938,0.0969,0.0978,0.0992,0.1017,0.104,0.1073,0.1103,0.1121,0.1142,0.1172,0.1213,0.1204,0.1221,0.1223,0.1248,0.1295,0.1234,0.1235,0.1246,0.1356,0.1365,0.1374,0.1291,0.1293,0.1294,0.1355,0,0.0989,0.1047,0.105,0.1103,0.1131,0.1126,0.1156,0.1175,0.1185,0.1211,0.1222,0.1252,0.1236,0.1247,0.1271,0.1284,0.1317,0.128,0.1321,0.1322,0.1316,0.1384,0.1393,0.1449,0.1362,0.1364,0.1365,0,0.1056,0.108,0.1136,0.1159,0.1171,0.1197,0.1226,0.1251,0.1274,0.128,0.13,0.1299,0.1336,0.1313,0.1365,0.1339,0.1356,0.1366,0.1368,0.1373,0.1347,0.1392,0.1467,0.1476,0.1377,0.1376,0.1375,0,0.1096,0.1142,0.1182,0.1194,0.1222,0.1241,0.1254,0.1275,0.1294,0.132,0.1332,0.1362,0.1379,0.1403,0.1412,0.1394,0.1464,0.1441,0.1471,0.1471,0.1486,0.1485,0.1566,0.1496,0.1496,0.1495,0.1495,0,0.1153,0.1188,0.12,0.1225,0.1265,0.127,0.1309,0.1321,0.1341,0.1369,0.1367,0.1394,0.1402,0.1432,0.1439,0.1482,0.1489,0.1496,0.1497,0.1497,0.1496,0.1508,0.1505,0.1498,0.1497,0.1497,0.1496,0,0.1204,0.1213,0.1257,0.128,0.1287,0.1316,0.1336,0.1361,0.1371,0.1407,0.1416,0.1432,0.1466,0.1477,0.1518,0.1523,0.1574,0.1571,0.1566,0.1566,0.1596,0.1594,0.1689,0.1703,0.1622,0.1623,0.1623,0,0.124,0.1267,0.1294,0.1313,0.1326,0.1356,0.1375,0.1382,0.1402,0.1432,0.1454,0.1488,0.1515,0.1571,0.1587,0.162,0.1619,0.165,0.1624,0.1623,0.1621,0.162,0.1624,0.1655,0.1656,0.1656,0.1657,0,0.1305,0.1309,0.1336,0.1366,0.1389,0.1413,0.1436,0.1451,0.1462,0.1486,0.152,0.1542,0.1585,0.1619,0.1653,0.1668,0.1665,0.1665,0.1674,0.1674,0.1671,0.1675,0.1581,0.1663,0.1662,0.1662,0.1662,0.1661,0.1351,0.1375,0.1398,0.143,0.1448,0.147,0.1495,0.1509,0.1537,0.1573,0.1575,0.1614,0.1639,0.1684,0.1701,0.1732,0.1723,0.1736,0.1739,0.1743,0.1746,0.1665,0.1738,0.1738,0.1738,0.1738,0.1737,0,0.1416,0.1431,0.146,0.1493,0.1518,0.1513,0.1539,0.1561,0.1594,0.1618,0.1645,0.1687,0.1721,0.1741,0.1775,0.1797,0.1797,0.1806,0.1805,0.1809,0.1751,0.174,0.1806,0.1806,0.1806,0.1806,0.1806,0.1806,0.1453,0.1495,0.1502,0.1554,0.1569,0.1607,0.1622,0.1644,0.1663,0.1709,0.1737,0.175,0.1773,0.1809,0.1841,0.1846,0.186,0.187,0.1875,0.182,0.1813,0.1806,0.1797,0.1873,0.1873,0.1931,0.1931,0.1932]}]]